Regional Weather Roundup
Issued by NWS

Home | Current Version | Previous Version | Graphics & Text | Print | Product List | Glossary On
Versions: 1 2 3 4 5 6 7 8 9 10 11 12 13 14 15 16 17 18 19 20 21 22 23 24 25 26 27 28 29 30 31 32 33 34 35 36 37 38 39 40 41 42 43 44 45 46 47 48 49 50
000
ASUS45 KTFX 300610
RWRMT
MONTANA REGIONAL WEATHER ROUNDUP
NATIONAL WEATHER SERVICE GREAT FALLS MT
1200 AM MDT TUE JUN 30 2015

NOTE: "FAIR" INDICATES FEW OR NO CLOUDS BELOW 12000 FEET WITH NO
SIGNIFICANT WEATHER AND/OR OBSTRUCTIONS TO VISIBILITY.

MTZ001>007-043-300700-
WEST OF THE DIVIDE

CITY           SKY/WX    TMP DP  RH WIND       PRES   REMARKS
KALISPELL      CLEAR     65  57  75 CALM      29.96R
MISSOULA       MOCLDY    74  60  61 SE9       30.03R
BUTTE          PTCLDY    62  56  80 CALM      30.19F
MULLAN PASS    CLEAR     66  53  63 VRB5      30.21R
DEER LODGE       N/A     63  61  94 NW5       30.17S
EUREKA           N/A     70  61  73 N6        30.00F
HAMILTON         N/A     66  63  88 S3        30.05F
RONAN            N/A     73  61  66 E2        30.03R
$$

MTZ008-052>055-300700-
SOUTHWEST MONTANA

CITY           SKY/WX    TMP DP  RH WIND       PRES   REMARKS
BOZEMAN        CLOUDY    67  56  67 S13       30.12F
DILLON         LGT RAIN  65  58  78 SE7       30.16S
W YELLOWSTONE  CLOUDY    59  54  82 CALM      30.31F
THREE FORKS      N/A     68  67  96 CALM      30.10F
TWIN BRIDGES     N/A     68  54  60 E7        30.13R
$$

MTZ009-010-012-014-046-048-049-054-300700-
EAST SLOPES AND CENTRAL MONTANA

CITY           SKY/WX    TMP DP  RH WIND       PRES   REMARKS
CUT BANK       PTCLDY    64  55  72 W10       30.00F
GREAT FALLS    LGT RAIN  70  59  68 S18       30.00F
MALMSTROM AFB  CLOUDY    68  62  81 S3        30.01R
HELENA         MOCLDY    68  62  81 W9        30.06S
CONRAD           N/A     66  66 100 CALM      30.04F
$$

MTZ011-013-016-021-045-047-050-051-300700-
NORTH CENTRAL MONTANA

CITY           SKY/WX    TMP DP  RH WIND       PRES   REMARKS
HAVRE          CLOUDY    77  50  38 E21       29.95S HAZE
LEWISTOWN      LGT RAIN  72  56  57 W17       30.11R
CHINOOK          N/A     73  46  38 E14       29.96F
FORT BENTON      N/A     72  63  73 SW5       29.97F
$$

MTZ017>020-022>027-061-062-300700-
NORTHEAST MONTANA

CITY           SKY/WX    TMP DP  RH WIND       PRES   REMARKS
JORDAN           N/A     77  49  37 E7        29.99R
SIDNEY         CLOUDY    72  52  49 N13G20    29.98F VSB 1
WOLF POINT     CLOUDY    73  49  42 E12       29.99F HAZE
MALTA            N/A     73  46  38 CALM      29.95S
PLENTYWOOD       N/A     70  48  46 NE7       30.00F
POPLAR           N/A     70  48  46 NE5       29.99F
$$

MTZ028>42-056>058-300700-
SOUTHCENTRAL AND SOUTHEAST MONTANA

CITY           SKY/WX    TMP DP  RH WIND       PRES   REMARKS
BAKER          MOCLDY    74  61  63 NE8       29.99F
BILLINGS       CLOUDY    73  57  57 SW14      30.07F
LIVINGSTON     MOCLDY    66  60  81 SW5       30.15F
MILES CITY     CLOUDY    78  54  43 NE13      29.95F
BIG TIMBER       N/A     66  59  77 SW16      30.14F
FORSYTH          N/A     82  45  26 NE7       29.96F
LAUREL           N/A     70  55  58 CALM      30.06R
ROUNDUP          N/A     76  55  47 W13       29.93S
$$

REGIONAL REPORTS...DAKOTAS

CITY           SKY/WX    TMP DP  RH WIND       PRES   REMARKS
WILLISTON      CLOUDY    71  54  54 N9        30.00S HAZE
MINOT          CLOUDY    70  62  76 S8        29.96R
DICKINSON      CLOUDY    73  63  70 NE9       29.95S
BEACH          MOCLDY    72  63  73 CALM      29.98F
CROSBY         FAIR      64  59  82 NW7       30.01R FOG
BISMARCK       CLOUDY    71  65  81 NE8       29.94R
GRAND FORKS    PTCLDY    58  57  97 W6        29.93R
FARGO          CLEAR     62  58  86 N7        29.92R
BUFFALO SD       N/A     73  59  61 NE6       29.91S
RAPID CITY     PTCLDY    66  59  78 W6        30.02F
$$

REGIONAL REPORTS...WYOMING/IDAHO/WASHINGTON

CITY           SKY/WX    TMP DP  RH WIND       PRES   REMARKS
GILLETTE       PTCLDY    67  56  67 S9        30.10S
SHERIDAN       CLOUDY    74  54  49 NW18G25   30.09R
BUFFALO WY     CLOUDY    71  47  42 N10       30.15S
CODY           CLOUDY    73  50  43 NW8       30.19F THUNDER
YELLOWSTONE LA   N/A     58  52  80 CALM      30.44F
IDAHO FALLS    MOCLDY    70  54  56 N9        30.12F
SALMON         PTCLDY    68  61  77 SE3       30.06F
BOISE          MOCLDY    87  53  31 CALM      29.93R
SPOKANE        PTCLDY    77  52  41 W7        29.96R
$$

REGIONAL REPORTS...ALBERTA

CITY           SKY/WX    TMP DP  RH WIND       PRES   REMARKS
EDMONTON       CLOUDY    61  55  82 NE7       29.98F
CALGARY        TSTM      66  57  72 SW5       30.00R
LETHBRIDGE     PTCLDY    61  59  94 W6        29.96F
MEDICINE HAT   CLOUDY    72  45  37 E10G20    29.93S HAZE
WATERTON GATE    N/A     61  57  88 SW8         N/A
CARDSTON         N/A    N/A N/A N/A NE1         N/A
MILK RIVER       N/A     63  54  72 W5          N/A
ONEFOUR          N/A     70  43  37 E16         N/A
$$

REGIONAL REPORTS...SASKATCHEWAN

CITY           SKY/WX    TMP DP  RH WIND       PRES   REMARKS
SWIFT CURRENT  HAZE      64  50  59 S8        30.01F VSB 1
REGINA         LGT RAIN  61  57  88 N5        29.99F SMOKE
SASKATOON        N/A     64  55  72 S3        30.01S SMOKE
CYPRESS HILLS    N/A     61  39  44 SE10G17     N/A
VAL MARIE        N/A     64  46  52 E14         N/A
ROCKGLEN         N/A     64  48  55 E5          N/A
$$


USA.gov is the U.S. government's official web portal to all federal, state and local government web resources and services.